Location: Spangle
(47.4302°N, 117.3779°W)
Time: 12:47:14
(UTC+00:00)

ISS - Pass Details

Date: 21 April 2026
Orbit: 414 x 424 km, 51.6° (Epoch: 11 May)

Event Time Altitude Azimuth Distance (km) Brightness Sun altitude
Exits shadow 12:00:01 11° 230° (SW) 1,411 -1.7 -8.5°
Maximum altitude 12:03:07 60° 150° (SSE) 484 -3.4 -8.1°
Drops below altitude 10° 12:06:28 10° 70° (ENE) 1,508 0.8 -7.6°
Sets 12:08:35 0° 66° (ENE) 2,378 2.7 -7.2°
